This demonstration page uses our WeatherBlox Daily Observations layout. Learn more.

Left ArrowRight Arrow

Hourly Observations for February 27, 2018

Temp ( °F °C ) Dew Point ( °F °C ) Humidity (%) Winds ( mph kmh ) Pressure ( in mb ) Visibility ( mi km ) Precip ( " mm )
12:54 am 00:54 Clear 36 2.2 25 -3.9 64 64 S 6 9 30.02 1017 10 16 0.00 0.00
1:54 am 01:54 Clear 37 2.8 25 -3.9 62 62 S 8 13 30.00 1016 10 16 0.00 0.00
2:54 am 02:54 Clear 38 3.3 26 -3.3 62 62 SSE 7 11 29.98 1015 10 16 0.00 0.00
3:54 am 03:54 Clear 39 3.9 30 -1.1 70 70 S 12 19 29.92 1013 10 16 0.00 0.00
4:54 am 04:54 Clear 41 5 31 -0.6 67 67 S 12 19 29.92 1013 10 16 0.00 0.00
5:54 am 05:54 Clear 38 3.3 31 -0.6 76 76 S 8 13 29.93 1014 10 16 0.00 0.00
6:54 am 06:54 Clear 36 2.2 30 -1.1 79 79 S 9 15 29.92 1013 10 16 0.00 0.00
7:54 am 07:54 Sunny 37 2.8 32 0 82 82 S 9 15 29.93 1013 10 16 0.00 0.00
8:54 am 08:54 Sunny 46 7.8 35 1.7 66 66 SSW 10 17 29.92 1013 10 16 0.00 0.00
9:54 am 09:54 Sunny 50 10 36 2.2 59 59 SSW 15 24 29.90 1013 10 16 0.00 0.00
10:54 am 10:54 Sunny 53 11.7 33 0.6 47 47 SSW 14 22 29.88 1012 10 16 0.00 0.00
11:54 am 11:54 Sunny 57 13.9 30 -1.1 36 36 SW 16 26 29.87 1012 10 16 0.00 0.00
12:54 pm 12:54 Sunny 61 16.1 28 -2.2 29 29 WSW 14 22 29.84 1011 10 16 0.00 0.00
1:54 pm 13:54 Sunny 61 16.1 27 -2.8 27 27 WSW 8 13 29.82 1010 10 16 0.00 0.00
2:54 pm 14:54 Sunny 63 17.2 26 -3.3 25 25 W 7 11 29.80 1009 10 16 0.00 0.00
3:54 pm 15:54 Sunny 65 18.3 25 -3.9 22 22 WNW 6 9 29.78 1008 10 16 0.00 0.00
4:54 pm 16:54 Sunny 63 17.2 25 -3.9 24 24 NNW 8 13 29.77 1008 10 16 0.00 0.00
5:54 pm 17:54 Sunny 51 10.6 27 -2.8 39 39 N 8 13 29.78 1009 10 16 0.00 0.00
6:54 pm 18:54 Clear 43 6.1 30 -1.1 60 60 N 12 19 29.82 1010 10 16 0.00 0.00
7:54 pm 19:54 Clear 37 2.8 29 -1.7 73 73 N 10 17 29.84 1011 10 16 0.00 0.00
8:54 pm 20:54 Clear 37 2.8 33 0.6 86 86 N 10 17 29.85 1011 9 14 0.00 0.00
9:54 pm 21:54 Clear 33 0.6 30 -1.1 89 89 N 6 9 29.87 1012 7 11 0.00 0.00
10:54 pm 22:54 Clear 34 1.1 30 -1.1 85 85 NNW 8 13 29.88 1012 8 13 0.00 0.00
11:54 pm 23:54 Clear with Mist and Fog 27 -2.8 25 -3.9 92 92 N 5 7 29.87 1012 6 10 0.00 0.00

Powered by AerisWeather